Location: Helsinki
(60.1699°N, 24.9384°E)
Time: 15:47:17
(UTC+02:00)

Tiros 1 - Pass Details

Date: 08 October 2022
Orbit: 629 x 662 km, 48.4° (Epoch: 07 December)

Event Time Altitude Azimuth Distance (km) Brightness Sun altitude
Rises 01:36:21 0° 243° (WSW) 2,993 - -35.3°
Reaches altitude 10° 01:39:12 10° 227° (SW) 2,079 - -35.3°
Maximum altitude 01:42:40 20° 180° (S) 1,513 - -35.2°
Drops below altitude 10° 01:46:08 10° 134° (SE) 2,070 - -35.1°
Sets 01:48:58 0° 118° (ESE) 2,976 - -35.1°
